Regional Weather Roundup
Issued by NWS

Home | Current Version | Previous Version | Graphics & Text | Print | Product List | Glossary On
Versions: 1 2 3 4 5 6 7 8 9 10 11 12 13 14 15 16 17 18 19 20 21 22 23 24 25 26 27 28 29 30 31 32 33 34 35 36 37 38 39 40 41 42 43 44 45 46 47 48 49 50
000
ASUS43 KIND 192359
RWRIN

WEATHER ROUNDUP FOR INDIANA
NATIONAL WEATHER SERVICE INDIANAPOLIS IN
800 PM EDT THU APR 19 2018

NOTE: "FAIR" INDICATES FEW OR NO CLOUDS BELOW 12,000 FEET WITH NO
SIGNIFICANT WEATHER AND/OR OBSTRUCTIONS TO VISIBILITY.

* - STATION DOES NOT REPORT WEATHER SUCH AS PRECIPITATION OR FOG.

+ - STATION NOT QUALITY CONTROLLED BY THE NATIONAL WEATHER SERVICE.
    USE DATA WITH CAUTION...ESPECIALLY DEWPOINT AND RELATIVE
    HUMIDITY OBSERVATIONS.

INZ001>003-010>013-019-020-200100-
NORTHWEST INDIANA

CITY           SKY/WX    TMP DP  RH WIND       PRES   REMARKS
GARY /AIRPORT/ CLEAR     43  27  52 N5        30.42R
KNOX *+        FAIR      41  18  38 N14       30.39S
MONTICELLO +   FAIR      46  14  27 N16       30.37R
6HR MIN TEMP:  46; 6HR MAX TEMP:  54;

RENSSELAER +   FAIR      45   0  15 N10G16    30.39S

$$

LMZ046-743>745-200100-
SOUTHERN LAKE MICHIGAN

STATION/POSITION TIME  TEMP    WIND        PRES    WAVE
                       AIR SEA DIR/SP/G            HT
                 (UTC) (F)     (DEG/KT/KT) (MB)    (FT)
BURNS HARBOR     2340   40      20/  7/  8 1030.1S
MICHIGAN CITY    2330   41     340/ 11/ 12   N/A

$$

INZ004-005-014>016-021>024-200100-
NORTH CENTRAL INDIANA

CITY           SKY/WX    TMP DP  RH WIND       PRES   REMARKS
ELKHART        FAIR      41  21  45 NW14G21   30.35R
GOSHEN         FAIR      42  28  57 NW13G25   30.34R
6HR MIN TEMP:  42; 6HR MAX TEMP:  50;

PERU/GRISSOM   FAIR      46  24  41 NW16G24   30.33R
6HR MIN TEMP:  46; 6HR MAX TEMP:  54;

ROCHESTER +    FAIR      45  23  42 N14       30.36R
SOUTH BEND     FAIR      40  20  44 N17       30.38R WCI  31
6HR MIN TEMP:  40; 6HR MAX TEMP:  45;

WARSAW +       FAIR      41  28  60 NW12      30.34R

$$

INZ006>009-017-018-025>027-200100-
NORTHEAST INDIANA

CITY           SKY/WX    TMP DP  RH WIND       PRES   REMARKS
ANGOLA *+      FAIR      45  30  57 NW10      30.29R
FORT WAYNE     FAIR      47  32  56 NW14      30.30R
6HR MIN TEMP:  47; 6HR MAX TEMP:  55;

KENDALLVILLE + FAIR      44  25  46 NW8       30.31R

$$

INZ028-029-035-036-043>045-051>053-200100-
WEST CENTRAL INDIANA

CITY           SKY/WX    TMP DP  RH WIND       PRES   REMARKS
GREENCASTLE +  FAIR      50  23  34 N14       30.35R
LAFAYETTE      FAIR      48  17  29 N15       30.37R
6HR MIN TEMP:  48; 6HR MAX TEMP:  54;

TERRE HAUTE    FAIR      53  28  38 NW12      30.35R
6HR MIN TEMP:  49; 6HR MAX TEMP:  56;


$$

INZ030>032-037>040-046>048-054>057-064-065-200100-
CENTRAL INDIANA

CITY           SKY/WX    TMP DP  RH WIND       PRES   REMARKS
COLUMBUS       CLEAR     55 N/A N/A NW14      30.31S
INDIANAPOLIS   FAIR      51  22  31 NW20      30.33R
6HR MIN TEMP:  50; 6HR MAX TEMP:  56;

-EAGLE CREEK   FAIR      52  23  32 N17G23    30.32R
6HR MIN TEMP:  50; 6HR MAX TEMP:  55;

KOKOMO +       FAIR      47  24  40 NW18      30.34R
6HR MIN TEMP:  47; 6HR MAX TEMP:  54;

MT COMFORT *+  FAIR      50  32  50 NW15      30.32R
SHELBYVILLE    FAIR      53  26  35 NW16      30.30R
6HR MIN TEMP:  49; 6HR MAX TEMP:  56;

ZIONSVILLE +   FAIR      47  25  40 NW15G21   30.34R
6HR MIN TEMP:  47; 6HR MAX TEMP:  53;


$$

INZ033-034-041-042-049-050-058-059-200100-
EAST CENTRAL INDIANA

CITY           SKY/WX    TMP DP  RH WIND       PRES   REMARKS
MUNCIE         FAIR      51  26  37 NW15      30.29R
6HR MIN TEMP:  51; 6HR MAX TEMP:  57;

RICHMOND +     FAIR      50  28  43 NW9G20    30.27S

$$

INZ060-061-067>069-081>083-085>088-200100-
SOUTHWEST INDIANA

CITY           SKY/WX    TMP DP  RH WIND       PRES   REMARKS
EVANSVILLE     FAIR      52  31  44 NW9       30.36R
6HR MIN TEMP:  47; 6HR MAX TEMP:  55;

HUNTINGBURG +  FAIR      52  32  46 NW8       30.34R
6HR MIN TEMP:  45; 6HR MAX TEMP:  54;


$$

INZ062-063-066-070>080-084-089>092-200100-
SOUTH CENTRAL AND SOUTHEAST INDIANA

CITY           SKY/WX    TMP DP  RH WIND       PRES   REMARKS
BLOOMINGTON    FAIR      52  28  39 N12       30.32R
6HR MIN TEMP:  47; 6HR MAX TEMP:  56;

FRENCH LICK *+ FAIR      54  16  22 N6        30.32S
SEYMOUR +      FAIR      54  30  40 N8        30.31S

$$





USA.gov is the U.S. government's official web portal to all federal, state and local government web resources and services.